Location: *
(49.4547°N, 7.9131°E)
Time: 16:25:48
(UTC+00:00)

ADEOS Rocket - Pass Details

Date: 22 September 2019
Orbit: 859 x 1306 km, 98.7° (Epoch: 15 October)

Event Time Altitude Azimuth Distance (km) Brightness Sun altitude
Rises 18:42:36 0° 18° (NNE) 4,104 6.2 -12.9°
Reaches altitude 10° 18:45:22 10° 26° (NNE) 3,189 5.6 -13.4°
Maximum altitude 18:52:22 42° 96° (E) 1,748 3.9 -14.4°
Drops below altitude 10° 18:59:37 10° 165° (SSE) 3,316 5.4 -15.6°
Sets 19:02:32 0° 172° (S) 4,282 6.1 -16.0°
